Location: Cointrin
(46.2167°N, 6.1167°E)
Time: 15:34:56
(UTC+00:00)

Cosmos 2333 - Pass Details

Date: 08 February 2023
Orbit: 828 x 867 km, 70.9° (Epoch: 21 March)

Event Time Altitude Azimuth Distance (km) Brightness Sun altitude
Rises 17:25:50 0° 193° (SSW) 3,360 7.7 -6.7°
Reaches altitude 10° 17:28:16 10° 190° (S) 2,434 6.9 -7.1°
Maximum altitude 17:33:45 61° 111° (ESE) 948 4.3 -8.0°
Drops below altitude 10° 17:39:20 10° 33° (NNE) 2,473 6.2 -8.9°
Sets 17:41:49 0° 30° (NNE) 3,418 7.0 -9.4°
